Weather History for Fryeburg, ME

Change the Weather History Date:

Tuesday, May 13, 2014

  Actual Average Record
Temperature  
Mean Temperature 54 °F -  
Max Temperature 63 °F 64 °F 82 °F (2012)
Min Temperature 46 °F 37 °F 27 °F (1999)
Degree Days  
Heating Degree Days 12    
Growing Degree Days 4 (Base 50)    
Moisture  
Dew Point 41 °F    
Average Humidity 64    
Maximum Humidity 86    
Minimum Humidity 49    
Precipitation  
Precipitation 0.02 in - - ()
Sea Level Pressure  
Sea Level Pressure 30.28 in    
Wind  
Wind Speed 6 mph (SE)    
Max Wind Speed 12 mph    
Max Gust Speed -    
Visibility 10 miles    
Events Rain    
Averages and records for this station are not official NWS values.
T = Trace of Precipitation, MM = Missing Value Source: NWS Daily Summary

Daily Weather History Graph

Daily Weather History Graph

Search for Another Location

Airport:

Trip Planner

Search our weather history database for the weather conditions in past years. The results will help you decide how hot, cold, wet, or windy it might be!

Date:

Astronomy

May. 13, 2014 Rise Set
Actual Time 5:20 AM EDT 8:00 PM EDT
Civil Twilight 4:46 AM EDT 8:34 PM EDT
Nautical Twilight 4:05 AM EDT 9:16 PM EDT
Astronomical Twilight 3:17 AM EDT 10:04 PM EDT
Moon 6:56 PM EDT (5/13) 4:38 AM EDT (5/13)
Length of Visible Light 15h 47m
Length of Day
14h 40m
Waxing Gibbous, 98% of the Moon is Illuminated
May 13
Waxing Gibbous
May 14
Full
May 21
Last Quarter
May 28
New
Jun 5
First Quarter

Hourly Weather History & Observations

Time (EDT) Temp. Dew Point Humidity Pressure Visibility Wind Dir Wind Speed Gust Speed Precip Events Conditions
12:04 AM 57.0 °F 43.0 °F 59% 30.17 in 10.0 mi SE 11.5 mph - N/A   Partly Cloudy
12:54 AM 55.0 °F 43.0 °F 64% 30.19 in 10.0 mi East 6.9 mph - N/A   Scattered Clouds
2:54 AM 53.1 °F 42.1 °F 66% 30.23 in 10.0 mi ESE 6.9 mph - N/A   Overcast
3:54 AM 52.0 °F 41.0 °F 66% 30.22 in 10.0 mi ESE 5.8 mph - N/A   Overcast
4:54 AM 51.1 °F 39.9 °F 66% 30.24 in 10.0 mi ENE 4.6 mph - N/A   Overcast
5:54 AM 50.0 °F 39.0 °F 66% 30.27 in 10.0 mi East 5.8 mph - N/A   Overcast
6:05 AM 50.0 °F 39.0 °F 66% 30.27 in 10.0 mi East 5.8 mph - N/A   Overcast
6:32 AM 50.0 °F 39.0 °F 66% 30.27 in 10.0 mi East 3.5 mph - N/A   Overcast
6:54 AM 50.0 °F 39.0 °F 66% 30.28 in 10.0 mi Variable 5.8 mph - N/A   Overcast
7:39 AM 50.0 °F 39.0 °F 66% 30.29 in 10.0 mi ESE 4.6 mph - N/A   Overcast
7:54 AM 48.9 °F 39.0 °F 69% 30.30 in 10.0 mi East 4.6 mph - N/A   Overcast
9:54 AM 46.9 °F 43.0 °F 86% 30.32 in 10.0 mi ESE 3.5 mph - 0.02 in Rain Light Rain
10:20 AM 48.0 °F 42.1 °F 80% 30.32 in 10.0 mi ESE 4.6 mph - 0.00 in Rain Light Rain
10:54 AM 48.9 °F 41.0 °F 74% 30.34 in 10.0 mi Calm Calm - 0.00 in   Overcast
12:54 PM 55.0 °F 41.0 °F 59% 30.32 in 10.0 mi SE 3.5 mph - N/A   Overcast
1:54 PM 59.0 °F 42.1 °F 53% 30.30 in 10.0 mi Variable 4.6 mph - N/A   Mostly Cloudy
2:54 PM 60.1 °F 41.0 °F 49% 30.29 in 10.0 mi Variable 4.6 mph - N/A   Mostly Cloudy
3:54 PM 61.0 °F 42.1 °F 50% 30.28 in 10.0 mi North - - N/A   Mostly Cloudy
4:54 PM 60.1 °F 41.0 °F 49% 30.29 in 10.0 mi WSW 6.9 mph - N/A   Partly Cloudy
5:54 PM 59.0 °F 41.0 °F 51% 30.29 in 10.0 mi Variable 5.8 mph - N/A   Mostly Cloudy
6:54 PM 57.0 °F 39.9 °F 53% 30.28 in 10.0 mi South 5.8 mph - N/A   Clear
7:54 PM 54.0 °F 41.0 °F 62% 30.28 in 10.0 mi SSE 4.6 mph - N/A   Clear
8:54 PM 51.1 °F 41.0 °F 68% 30.32 in 10.0 mi South 4.6 mph - N/A   Clear
9:54 PM 50.0 °F 39.0 °F 66% 30.33 in 10.0 mi South 4.6 mph - N/A   Clear
10:54 PM 48.9 °F 39.0 °F 69% 30.32 in 10.0 mi South 3.5 mph - N/A   Clear
11:54 PM 46.9 °F 39.0 °F 74% 30.32 in 10.0 mi South 4.6 mph - N/A   Scattered Clouds